Tracking 29892 objects as of 21-Nov-2024
HD Live streaming from Space Station
objects crossing your sky now

BREEZE-KM R/B

Track BREEZE-KM R/B now!
10-day predictions


NORAD ID: 39060
Int'l Code: 2013-001D
Perigee: 1,492.8 km
Apogee: 1,512.9 km
Inclination: 82.5 °
Period: 115.9 minutes
Semi major axis: 7873 km
RCS: 5.5434 m2 (large)
Launch date: January 15, 2013
Source: Commonwealth of Independent States (former USSR) (CIS)
Launch site: PLESETSK MISSILE AND SPACE COMPLEX (PKMTR)

Note: This is a ROCKET BODY
Your satellite tracking list
Your tracking list is empty




NASA's NSSDC Master Catalog

Two Line Element Set (TLE):
1 39060U 13001D   24325.49031697  .00000019  00000-0  69116-4 0  9995
2 39060  82.4940 216.6913 0012800 237.5654 122.4188 12.42571318537328
Source of the keplerian elements: AFSPC